Time,TemperatureF,DewpointF,PressureIn,WindDirection,WindDirectionDegrees,WindSpeedMPH,WindSpeedGustMPH,Humidity,HourlyPrecipIn,Conditions,Clouds,dailyrainin,SoftwareType,DateUTC
2013-01-04 00:04:00,15.6,11.4,29.18,SW,218,6.0,0.0,83,0.00,,SCT,0.00,WeatherDisplay:10.37,2013-01-04 06:04:00,
2013-01-04 00:14:00,16.7,12.2,29.15,SW,228,7.0,0.0,82,0.00,,SCT,0.00,WeatherDisplay:10.37,2013-01-04 06:14:00,
2013-01-04 00:19:00,16.7,11.9,29.15,SW,225,6.0,0.0,81,0.00,,SCT,0.00,WeatherDisplay:10.37,2013-01-04 06:19:00,
2013-01-04 00:24:00,17.1,12.0,29.15,SW,225,7.0,0.0,80,0.00,,SCT,0.00,WeatherDisplay:10.37,2013-01-04 06:24:00,
2013-01-04 00:29:00,17.1,11.7,29.15,SW,220,7.0,0.0,79,0.00,,SCT,0.00,WeatherDisplay:10.37,2013-01-04 06:29:00,
2013-01-04 00:34:00,17.2,11.8,29.15,SW,230,6.0,0.0,79,0.00,,SCT,0.00,WeatherDisplay:10.37,2013-01-04 06:34:00,
2013-01-04 00:39:00,17.4,12.0,29.18,SW,235,7.0,0.0,79,0.00,,SCT,0.00,WeatherDisplay:10.37,2013-01-04 06:39:00,
2013-01-04 00:44:00,17.6,11.9,29.18,SW,230,6.0,0.0,78,0.00,,SCT,0.00,WeatherDisplay:10.37,2013-01-04 06:44:00,
2013-01-04 00:49:00,17.8,12.1,29.18,SW,224,7.0,0.0,78,0.00,,SCT,0.00,WeatherDisplay:10.37,2013-01-04 06:49:00,
2013-01-04 00:54:00,17.8,12.1,29.15,SW,224,7.0,0.0,78,0.00,,SCT,0.00,WeatherDisplay:10.37,2013-01-04 06:54:00,
2013-01-04 00:59:00,17.8,11.8,29.15,SW,226,6.0,0.0,77,0.00,,SCT,0.00,WeatherDisplay:10.37,2013-01-04 06:59:00,
2013-01-04 01:04:00,17.8,11.8,29.15,SW,224,8.0,0.0,77,0.00,,SCT,0.00,WeatherDisplay:10.37,2013-01-04 07:04:00,
2013-01-04 01:09:00,17.8,11.8,29.12,SW,216,6.0,0.0,77,0.00,,SCT,0.00,WeatherDisplay:10.37,2013-01-04 07:09:00,
2013-01-04 01:14:00,18.0,12.0,29.12,SW,219,6.0,0.0,77,0.00,,SCT,0.00,WeatherDisplay:10.37,2013-01-04 07:14:00,
2013-01-04 01:19:00,18.0,12.0,29.12,SW,232,7.0,0.0,77,0.00,,SCT,0.00,WeatherDisplay:10.37,2013-01-04 07:19:00,
2013-01-04 01:24:00,18.1,12.1,29.12,SW,233,8.0,0.0,77,0.00,,SCT,0.00,WeatherDisplay:10.37,2013-01-04 07:24:00,
2013-01-04 01:29:00,18.1,11.8,29.12,SW,236,6.0,0.0,76,0.00,,SCT,0.00,WeatherDisplay:10.37,2013-01-04 07:29:00,
2013-01-04 01:34:00,18.1,11.8,29.12,SW,236,7.0,0.0,76,0.00,,SCT,0.00,WeatherDisplay:10.37,2013-01-04 07:34:00,
2013-01-04 01:39:00,18.1,11.8,29.12,SW,234,7.0,0.0,76,0.00,,SCT,0.00,WeatherDisplay:10.37,2013-01-04 07:39:00,
2013-01-04 01:49:00,18.5,12.2,29.12,SW,232,6.0,0.0,76,0.00,,SCT,0.00,WeatherDisplay:10.37,2013-01-04 07:49:00,
2013-01-04 01:54:00,18.7,12.4,29.12,SW,232,5.0,0.0,76,0.00,,SCT,0.00,WeatherDisplay:10.37,2013-01-04 07:54:00,
2013-01-04 01:59:00,18.7,12.4,29.12,WSW,237,6.0,0.0,76,0.00,,SCT,0.00,WeatherDisplay:10.37,2013-01-04 07:59:00,
2013-01-04 02:04:00,18.9,12.5,29.12,WSW,241,6.0,0.0,76,0.00,,SCT,0.00,WeatherDisplay:10.37,2013-01-04 08:04:00,
2013-01-04 02:09:00,19.0,12.7,29.12,WSW,252,7.0,0.0,76,0.00,,SCT,0.00,WeatherDisplay:10.37,2013-01-04 08:09:00,
2013-01-04 02:14:00,19.0,12.4,29.12,SW,236,7.0,0.0,75,0.00,,SCT,0.00,WeatherDisplay:10.37,2013-01-04 08:14:00,
2013-01-04 02:19:00,19.2,12.6,29.12,WSW,240,5.0,0.0,75,0.00,,SCT,0.00,WeatherDisplay:10.37,2013-01-04 08:19:00,
2013-01-04 02:24:00,19.2,12.6,29.12,WSW,252,7.0,0.0,75,0.00,,SCT,0.00,WeatherDisplay:10.37,2013-01-04 08:24:00,
2013-01-04 02:29:00,19.4,12.8,29.12,WSW,239,7.0,0.0,75,0.00,,SCT,0.00,WeatherDisplay:10.37,2013-01-04 08:29:00,
2013-01-04 02:34:00,19.4,12.5,29.12,SW,228,7.0,0.0,74,0.00,,SCT,0.00,WeatherDisplay:10.37,2013-01-04 08:34:00,
2013-01-04 02:39:00,19.6,12.6,29.12,SW,236,8.0,0.0,74,0.00,,SCT,0.00,WeatherDisplay:10.37,2013-01-04 08:39:00,
2013-01-04 02:44:00,19.7,12.5,29.12,WSW,244,7.0,0.0,73,0.00,,SCT,0.00,WeatherDisplay:10.37,2013-01-04 08:44:00,
2013-01-04 02:49:00,19.8,12.5,29.12,SW,234,7.0,0.0,73,0.00,,SCT,0.00,WeatherDisplay:10.37,2013-01-04 08:49:00,
2013-01-04 02:54:00,19.8,12.5,29.12,SW,235,7.0,0.0,73,0.00,,SCT,0.00,WeatherDisplay:10.37,2013-01-04 08:54:00,
2013-01-04 02:59:00,19.8,12.5,29.12,WSW,237,7.0,0.0,73,0.00,,SCT,0.00,WeatherDisplay:10.37,2013-01-04 08:59:00,
2013-01-04 03:04:00,19.9,12.7,29.12,WSW,244,6.0,0.0,73,0.00,,SCT,0.00,WeatherDisplay:10.37,2013-01-04 09:04:00,
2013-01-04 03:09:00,19.9,12.7,29.12,WSW,247,6.0,0.0,73,0.00,,SCT,0.00,WeatherDisplay:10.37,2013-01-04 09:09:00,
2013-01-04 03:14:00,20.1,12.8,29.12,WSW,238,7.0,0.0,73,0.00,,SCT,0.00,WeatherDisplay:10.37,2013-01-04 09:14:00,
2013-01-04 03:19:00,20.3,12.7,29.12,WSW,240,8.0,0.0,72,0.00,,SCT,0.00,WeatherDisplay:10.37,2013-01-04 09:19:00,